Рыболово

Россия / Московская область     55°24′44″N   38°25′37″E
темп.,
°C
ветер,
м/с
пор.,
м/с
влажн.,
%
обл.,
%
осадки,
мм/ч
давл.,
гПа
погр.,
м
12 мая, ср
ср1200:00+12юв119392 0.0 102611
03:00+9вюв359446 0.0 102786
06:00+10юв138723 0.0 1027110
09:00+16всв246456 0.0 1026578
12:00+19в5767100 0.4 10231220
15:00+19в61177100 2.6 10201299
18:00+14вюв51293100 2.2 1019915
21:00+13вюв5109697 3.1 1020910
13 мая, чт
чт1300:00+9ююв379845 0.3 1021291
03:00+9вюв3693100 0.3 1022380
06:00+9в27955 0.0 1021209
09:00+15вюв3678100 0.0 1020624
12:00+15в4686100 0.3 1018594
15:00+12юв4996100 12.6 1017397
18:00+14ююв498623 0.6 1016820
21:00+12юв269824 2.6 1016187
14 мая, пт
пт1400:00+10ююз2696100 0.0 1017126
03:00+8ююз12946 0.0 101811
06:00+10юв129197 0.0 101961
09:00+14юв2483100 0.0 1018395
12:00+20юв466761 0.1 1017899
15:00+21юв5875100 2.3 10161079
18:00+19ююв51082100 8.4 1013311
21:00+15вюв249499 16.1 101362
15 мая, сб
сб1500:00+15юв3697100 2.6 1012110
03:00+15юв359698 3.1 101290
06:00+15юв369599 0.1 1011146
09:00+18ю358086 1.1 1011253
12:00+21ю5868100 0.0 10111255
15:00+17ююв91489100 1.1 1011878
18:00+18ююв510840 0.6 1010729
21:00+15ю399592 4.1 1009190
16 мая, вс
вс1600:00+13ююз310955 0.1 1010219
03:00+12ююз399710 0.1 1011225
06:00+13юз39958 0.0 1012281
09:00+17юз47755 0.0 1013631
12:00+20юз57598 0.0 10141504
15:00+20юз686463 0.3 10141434
18:00+19зюз476748 0.3 1014994
21:00+14юз22868 0.3 101519